Regional Weather Roundup
Issued by NWS San Diego, CA

Home | Current Version | Previous Version | Text Only | Print | Product List | Glossary On
Versions: 1 2 3 4 5 6 7 8 9 10 11 12 13 14 15 16 17 18 19 20 21 22 23 24 25 26 27 28 29 30 31 32 33 34 35 36 37 38 39 40 41 42 43 44 45 46 47 48 49 50
000
ASUS46 KSGX 221311
RWRSGX

SAN DIEGO HOURLY WEATHER ROUNDUP
NATIONAL WEATHER SERVICE SAN DIEGO CA
500 AM PST WED NOV 22 2017

NOTE: "FAIR" INDICATES FEW OR NO CLOUDS BELOW 12,000 FEET WITH NO
SIGNIFICANT WEATHER AND/OR OBSTRUCTIONS TO VISIBILITY.

CAZ042-043-060-061-PZZ750-775-221400-

GREATER SAN DIEGO AREA

CITY           SKY/WX    TMP DP  RH WIND       PRES   REMARKS
SAN DIEGO AP   CLEAR     62  43  49 CALM      30.03S
NATIONAL CITY    N/A     56  46  69 CALM      30.04S
CHULA VISTA      N/A     56  45  67 CALM      29.94R
IMPERIAL BEACH CLEAR     54  41  61 E3        30.02S
BROWN FIELD    CLEAR     64  37  36 E3        30.03R
MIRAMAR MCAS   CLEAR     62  37  39 NE6       30.02S
MONTGOMERY FLD CLEAR     63  36  36 CALM      30.02S
GILLESPIE FLD  FAIR      54  37  54 S3        30.03S

$$

NORTH SAN DIEGO COUNTY

CITY           SKY/WX    TMP DP  RH WIND       PRES   REMARKS
CAMP PENDLETON CLEAR     46  37  71 NW5       30.02S
OCEANSIDE AP   CLEAR     49  40  71 CALM      30.01S
OCEANSIDE HBR    N/A     57  43  60 SW3       30.04S
VISTA            N/A     60  41  49 CALM      30.00R
CARLSBAD       CLEAR     60  41  49 E3        30.01S
DEL MAR          N/A     62  44  52 CALM      30.03S
LA JOLLA SCRIP   N/A     67  42  39 CALM      30.01S
FALLBROOK        N/A     71  39  30 NE3       30.03S
ESCONDIDO        N/A     56  43  61 CALM      30.04R
SAN MARCOS       N/A     68  40  35 CALM      30.03S
POWAY            N/A     52  40  63 CALM      30.04F

$$

EAST SAN DIEGO COUNTY

CITY           SKY/WX    TMP DP  RH WIND       PRES   REMARKS
RAMONA           N/A    N/A N/A N/A MISG      30.07S
SANTEE LAKES     N/A     53  38  57 CALM      30.02S
LA MESA          N/A     66  39  37 NE3       29.95S
JAMUL            N/A     60  38  43 CALM      30.03R
DESCANSO N       N/A     71  35  27 NE10      29.94S
MT. LAGUNA OBS   N/A     58  32  36 NE20      30.01S
CAMPO            N/A     64  32  30 NE15      30.10F

$$

ORANGE COUNTY AND THE LOS ANGELES BASIN

CITY           SKY/WX    TMP DP  RH WIND       PRES   REMARKS
JOHN WAYNE AP  CLEAR     58  49  72 CALM      30.01S
LAGUNA BEACH     N/A     54  45  71 CALM      29.96S
LAKE FOREST FR   N/A     70  33  26 NE2       29.89S
HUNTINGTON BCH   N/A     53  50  89 CALM      30.02S
FULLERTON      CLEAR     57  47  69 CALM      30.01S
LONG BEACH     CLEAR     61  43  51 CALM      30.01S
L.A. AP        CLEAR     68  35  29 NE6       30.02S
L.A. DOWNTOWN  CLEAR     68  32  26 NE3       30.01S

$$

THE INLAND EMPIRE

CITY           SKY/WX    TMP DP  RH WIND       PRES   REMARKS
CORONA         CLEAR     53  41  63 NW3       30.06R
CHINO          CLEAR     57  42  57 CALM      30.06S
ONTARIO        PTCLDY    62  38  40 CALM      30.05F
SAN BERNARDINO FAIR      58  32  38 E6        30.09S
RIVERSIDE AP   CLEAR     62  39  42 E7        30.07R
MORENO VALLEY    N/A     70  42  36 CALM      28.20S
HORSETHIEF CYN   N/A     69  30  23 NW1       30.05S
PERRIS           N/A     65  40  40 CALM        N/A
HEMET EAST       N/A     67  31  26 CALM      30.10S
FRENCH VALLEY  FAIR      55  36  47 NE5       30.09R
TEMECULA         N/A     54  42  63 CALM      30.13R

$$

SAN BERNARDINO AND RIVERSIDE COUNTY MOUNTAINS

CITY           SKY/WX    TMP DP  RH WIND       PRES   REMARKS
BIG BEAR AP    CLEAR     32  23  69 CALM      30.43S
ANGELUS OAKS     N/A     59  33  37 CALM      30.02S

$$

SOUTHERN DESERT INCLUDING THE COACHELLA VALLEY

CITY           SKY/WX    TMP DP  RH WIND       PRES   REMARKS
PALM SPRINGS   CLEAR     67  35  30 NW9       30.10R
THOUSAND PALMS   N/A     63  36  36 N2        30.05S
PALM DESERT      N/A     58  41  53 CALM      27.61S
THERMAL        CLEAR     61  38  42 CALM      30.03S
BLYTHE         CLEAR     60  16  18 W7        30.09S
IMPERIAL AP    CLEAR     56  31  38 SW3       30.04R
EL CENTRO NAS  CLEAR     56  24  29 SW3       30.06S
YUMA AZ        CLEAR     64  24  21 NE5       30.05R

$$

UPPER DESERT

CITY           SKY/WX    TMP DP  RH WIND       PRES   REMARKS
VICTORVILLE AP CLEAR     48  19  32 CALM      30.24S
HESPERIA         N/A     47  22  36 SW2       30.34S
PALMDALE       CLEAR     45  19  35 NW5       30.26R
LANCASTER      CLEAR     38  13  35 CALM      30.26R
DAGGETT        CLEAR     47  22  37 W6        30.23S
29 PALMS N     CLEAR     59  26  28 W6        30.27R

$$

REGIONAL REPORTS

CITY           SKY/WX    TMP DP  RH WIND       PRES   REMARKS
SANTA BARBARA  CLEAR     51  46  83 CALM      30.02S
SANDBERG       CLEAR     65  28  24 E20       30.30S
LAS VEGAS NV   PTCLDY    55  33  43 W3        30.25R
PHOENIX AZ     PTCLDY    57  35  43 E7        30.09S
TIJUANA        CLEAR     61  37  41 CALM      30.05S
ENSENADA NW      N/A     69  32  25 CALM      29.93S

$$

OFFSHORE ISLANDS

CITY           SKY/WX    TMP DP  RH WIND       PRES   REMARKS
CATALINA ARPT  CLEAR     80  31  16 NE7       30.09S
SAN NICOLAS IS CLEAR     67  26  21 W8        30.03S

$$

MARINE AND OFFSHORE BUOY REPORTS

STATION/POSITION SKY/WX   TEMP    WIND        PRES    VSBY  SWELL
                          AIR SEA DIR/SP/G                  HT/PER/DIR
                          (F)     (DEG/KT/KT) (MB)    (MI)  (FT/S/D)
TANNER BANKS               63 63              1016.1F
S CLEMENTE BASIN           66 66  310/  6/  6 1016.0F         2/240/13
SAN NICOLAS IS.               62                N/A           3/300/11
SO. S. ROSA ISLA           62 61  310/ 10/ 12 1016.3S         3/300/11
W. S. BARBARA CH           61     320/ 10/ 14 1016.4
M. S. BARBARA CH           60 60  220/  4/  4 1017.4S         2/250/11
S. MONICA BASIN                   340/  2/  2 1015.9
S PEDRO CHANNEL               62                N/A           2/240/11
CMP PENDLETON NS              60                N/A           2/220/14
OCEANSIDE OFFSHR              62                N/A           2/210/11
TORREY PINES OTR              65                N/A           2/220/13
SAN DIEGO BAY                 67              1016.9S
POINT LOMA SOUTH              66                N/A           2/200/15

$$





USA.gov is the U.S. government's official web portal to all federal, state and local government web resources and services.